Tracking 28126 objects as of 2-Oct-2023
HD Live streaming from Space Station
objects crossing your sky now

STARLINK-3297

Track STARLINK-3297 now!
10-day predictions
STARLINK-3297 is classified as:


NORAD ID: 50159
Int'l Code: 2021-125D
Perigee: 545.8 km
Apogee: 548.0 km
Inclination: 53.2 °
Period: 95.4 minutes
Semi major axis: 6917 km
RCS: Unknown
Launch date: December 18, 2021
Source: United States (US)
Launch site: AIR FORCE WESTERN TEST RANGE (AFWTR)
Your satellite tracking list
Your tracking list is empty




NASA's NSSDC Master Catalog

Two Line Element Set (TLE):
1 50159U 21125D   23274.76004137 -.00002056  00000-0 -11112-3 0  9991
2 50159  53.2156 294.1841 0001649 111.9801 248.1366 15.08835428102102
Source of the keplerian elements: AFSPC